| time (UTC) | temp F | wind direction | speed knots | gust knots | rain 1hr in | rain 24hr in | rain mn in | humidity % | barometer mb |
| 20260508090020 | 52 | 219 | 0.0 | 0.0 | 0.00 | 0.00 | 0.00 | 82 | 1016.8 |
| 20260508084504 | 52 | 219 | 0.0 | 1.7 | 0.00 | 0.00 | 0.00 | 81 | 1016.7 |
| 20260508083008 | 52 | 166 | 0.0 | 0.9 | 0.00 | 0.00 | 0.00 | 81 | 1016.6 |
| 20260508081508 | 51 | 169 | 0.0 | 0.9 | 0.00 | 0.00 | 0.00 | 83 | 1016.7 |
| 20260508080019 | 50 | 198 | 0.0 | 0.9 | 0.00 | 0.00 | 0.00 | 84 | 1016.7 |
| 20260508074508 | 49 | 166 | 0.0 | 0.9 | 0.00 | 0.00 | 0.00 | 85 | 1016.6 |
| 20260508073012 | 48 | 166 | 0.0 | 0.0 | 0.00 | 0.00 | 0.00 | 87 | 1016.6 |
| 20260508071522 | 46 | 166 | 0.0 | 0.9 | 0.00 | 0.00 | 0.00 | 88 | 1016.5 |
| 20260508070013 | 45 | 166 | 0.0 | 0.0 | 0.00 | 0.00 | 0.00 | 88 | 1016.4 |
| 20260508064506 | 44 | 166 | 0.0 | 0.0 | 0.00 | 0.00 | 0.00 | 88 | 1016.3 |
| 20260508063013 | 44 | 166 | 0.0 | 0.0 | 0.00 | 0.00 | 0.00 | 88 | 1016.3 |
| 20260508061511 | 44 | 166 | 0.0 | 0.0 | 0.00 | 0.00 | 0.00 | 88 | 1016.2 |
| 20260508060014 | 44 | 166 | 0.0 | 0.0 | 0.00 | 0.00 | 0.00 | 88 | 1016.0 |
| 20260508054518 | 44 | 166 | 0.0 | 0.9 | 0.00 | 0.00 | 0.00 | 88 | 1015.9 |
| 20260508053013 | 43 | 166 | 0.0 | 0.9 | 0.00 | 0.00 | 0.00 | 88 | 1015.8 |
| 20260508051509 | 43 | 166 | 0.0 | 0.0 | 0.00 | 0.00 | 0.00 | 89 | 1015.7 |
| 20260508050019 | 43 | 166 | 0.0 | 0.0 | 0.00 | 0.00 | 0.00 | 89 | 1015.7 |
| 20260508044518 | 43 | 166 | 0.0 | 0.0 | 0.00 | 0.00 | 0.00 | 89 | 1015.7 |
| 20260508043018 | 43 | 166 | 0.0 | 0.0 | 0.00 | 0.00 | 0.00 | 89 | 1015.6 |
| 20260508041518 | 43 | 166 | 0.0 | 0.9 | 0.00 | 0.00 | 0.00 | 89 | 1015.7 |
| 20260508040014 | 43 | 166 | 0.0 | 0.9 | 0.00 | 0.00 | 0.00 | 89 | 1015.6 |
| 20260508034520 | 43 | 146 | 0.0 | 0.0 | 0.00 | 0.00 | 0.00 | 89 | 1015.6 |
| 20260508033018 | 42 | 204 | 0.0 | 0.0 | 0.00 | 0.00 | 0.00 | 88 | 1015.6 |
| 20260508031520 | 43 | 204 | 0.0 | 0.0 | 0.00 | 0.00 | 0.00 | 88 | 1015.6 |
| 20260508030020 | 43 | 204 | 0.0 | 0.0 | 0.00 | 0.00 | 0.00 | 88 | 1015.6 |
| 20260508024520 | 43 | 186 | 0.0 | 0.9 | 0.00 | 0.00 | 0.00 | 89 | 1015.6 |
| 20260508023014 | 43 | 166 | 0.0 | 0.9 | 0.00 | 0.00 | 0.00 | 89 | 1015.6 |
| 20260508021532 | 43 | 193 | 0.0 | 0.9 | 0.00 | 0.00 | 0.00 | 89 | 1015.5 |
| 20260508020023 | 43 | 106 | 0.0 | 0.9 | 0.00 | 0.00 | 0.00 | 89 | 1015.4 |
| 20260508014524 | 43 | 106 | 0.0 | 0.0 | 0.00 | 0.00 | 0.00 | 89 | 1015.4 |
| 20260508013034 | 42 | 106 | 0.0 | 0.0 | 0.00 | 0.00 | 0.00 | 89 | 1015.5 |
| 20260508011510 | 42 | 106 | 0.0 | 0.0 | 0.00 | 0.00 | 0.00 | 89 | 1015.6 |
| 20260508010019 | 42 | 106 | 0.0 | 0.0 | 0.00 | 0.00 | 0.00 | 89 | 1015.7 |
| 20260508004533 | 42 | 106 | 0.0 | 0.0 | 0.00 | 0.00 | 0.00 | 88 | 1015.6 |
| 20260508003010 | 43 | 106 | 0.0 | 0.0 | 0.00 | 0.00 | 0.00 | 88 | 1015.7 |
| 20260508001513 | 43 | 106 | 0.0 | 0.0 | 0.00 | 0.00 | 0.00 | 88 | 1015.7 |
| 20260508000005 | 43 | 106 | 0.0 | 0.0 | 0.00 | 0.00 | 0.00 | 88 | 1015.7 |
| 20260507234518 | 44 | 106 | 0.0 | 0.0 | 0.00 | 0.00 | 0.00 | 88 | 1015.7 |
| 20260507233033 | 43 | 106 | 0.0 | 0.0 | 0.00 | 0.00 | 0.00 | 88 | 1015.7 |
| 20260507231520 | 43 | 106 | 0.0 | 0.0 | 0.00 | 0.00 | 0.00 | 88 | 1015.7 |
| 20260507230015 | 44 | 106 | 0.0 | 0.0 | 0.00 | 0.00 | 0.00 | 87 | 1015.7 |
| 20260507224513 | 45 | 106 | 0.0 | 0.0 | 0.00 | 0.00 | 0.00 | 87 | 1015.7 |
| 20260507223009 | 45 | 106 | 0.0 | 0.0 | 0.00 | 0.00 | 0.00 | 87 | 1015.7 |
| 20260507221524 | 46 | 106 | 0.0 | 0.9 | 0.00 | 0.00 | 0.00 | 86 | 1015.7 |
| 20260507220024 | 46 | 106 | 0.0 | 0.0 | 0.00 | 0.00 | 0.00 | 86 | 1015.6 |
| 20260507214527 | 47 | 106 | 0.0 | 0.0 | 0.00 | 0.00 | 0.00 | 84 | 1015.6 |
| 20260507213016 | 48 | 106 | 0.9 | 0.9 | 0.00 | 0.00 | 0.00 | 85 | 1015.5 |
| 20260507211516 | 48 | 106 | 0.0 | 1.7 | 0.00 | 0.00 | 0.00 | 85 | 1015.4 |
| 20260507210028 | 49 | 106 | 0.0 | 0.0 | 0.00 | 0.00 | 0.00 | 84 | 1015.3 |
| 20260507204523 | 50 | 106 | 0.0 | 0.0 | 0.00 | 0.00 | 0.00 | 84 | 1015.2 |
| 20260507203025 | 50 | 106 | 0.0 | 0.0 | 0.00 | 0.00 | 0.00 | 83 | 1015.1 |
| 20260507201524 | 51 | 106 | 0.0 | 0.0 | 0.00 | 0.00 | 0.00 | 81 | 1014.9 |
| 20260507200024 | 52 | 106 | 0.0 | 0.9 | 0.00 | 0.00 | 0.00 | 79 | 1014.7 |
| 20260507194518 | 53 | 106 | 0.0 | 0.9 | 0.00 | 0.00 | 0.00 | 77 | 1014.7 |
| 20260507193015 | 53 | 226 | 0.0 | 0.0 | 0.00 | 0.00 | 0.00 | 75 | 1014.7 |
| 20260507191527 | 54 | 226 | 0.0 | 0.9 | 0.00 | 0.00 | 0.00 | 73 | 1014.6 |
| 20260507190024 | 54 | 226 | 0.0 | 1.7 | 0.00 | 0.00 | 0.00 | 72 | 1014.4 |
| 20260507184526 | 54 | 226 | 0.0 | 1.7 | 0.00 | 0.00 | 0.00 | 70 | 1014.3 |
| 20260507183025 | 54 | 212 | 0.0 | 1.7 | 0.00 | 0.00 | 0.00 | 70 | 1014.2 |
| 20260507181519 | 54 | 212 | 0.0 | 1.7 | 0.00 | 0.00 | 0.00 | 72 | 1014.2 |
| 20260507180014 | 54 | 200 | 0.9 | 5.2 | 0.00 | 0.00 | 0.00 | 73 | 1014.2 |
| 20260507174535 | 54 | 214 | 0.9 | 6.1 | 0.00 | 0.00 | 0.00 | 72 | 1014.1 |
| 20260507173033 | 55 | 179 | 2.6 | 8.7 | 0.00 | 0.00 | 0.00 | 72 | 1014.0 |
| 20260507171526 | 55 | 167 | 4.3 | 8.7 | 0.00 | 0.00 | 0.00 | 73 | 1014.0 |
| 20260507170025 | 56 | 174 | 4.3 | 7.8 | 0.00 | 0.00 | 0.00 | 72 | 1014.1 |
| 20260507164520 | 56 | 129 | 3.5 | 5.2 | 0.00 | 0.00 | 0.00 | 72 | 1014.0 |
| 20260507163026 | 55 | 188 | 2.6 | 4.3 | 0.00 | 0.00 | 0.00 | 72 | 1014.0 |
| 20260507161513 | 55 | 167 | 1.7 | 4.3 | 0.00 | 0.00 | 0.00 | 72 | 1014.0 |
| 20260507160013 | 55 | 131 | 0.9 | 3.5 | 0.00 | 0.00 | 0.00 | 72 | 1014.0 |
| 20260507154516 | 55 | 169 | 0.9 | 3.5 | 0.00 | 0.00 | 0.00 | 72 | 1014.1 |
| 20260507153010 | 55 | 164 | 2.6 | 7.0 | 0.00 | 0.00 | 0.00 | 72 | 1014.2 |
| 20260507151505 | 55 | 196 | 4.3 | 7.0 | 0.00 | 0.00 | 0.00 | 68 | 1014.3 |
| 20260507150011 | 56 | 153 | 3.5 | 7.8 | 0.00 | 0.00 | 0.00 | 65 | 1014.4 |
| 20260507144514 | 56 | 188 | 5.2 | 8.7 | 0.00 | 0.00 | 0.00 | 63 | 1014.4 |
| 20260507143022 | 57 | 131 | 5.2 | 9.6 | 0.00 | 0.00 | 0.00 | 62 | 1014.4 |
| 20260507141512 | 57 | 198 | 5.2 | 9.6 | 0.00 | 0.00 | 0.00 | 60 | 1014.5 |
| 20260507140012 | 57 | 183 | 5.2 | 9.6 | 0.00 | 0.00 | 0.00 | 60 | 1014.7 |
| 20260507134526 | 58 | 235 | 6.1 | 12.2 | 0.00 | 0.00 | 0.00 | 58 | 1014.7 |
| 20260507133019 | 58 | 201 | 7.0 | 11.3 | 0.00 | 0.00 | 0.00 | 57 | 1014.7 |
| 20260507131524 | 58 | 162 | 6.1 | 11.3 | 0.00 | 0.00 | 0.00 | 57 | 1014.7 |
| 20260507130027 | 59 | 121 | 2.6 | 5.2 | 0.00 | 0.00 | 0.00 | 57 | 1014.7 |
| 20260507124519 | 59 | 183 | 4.3 | 11.3 | 0.00 | 0.00 | 0.00 | 59 | 1014.7 |
| 20260507123010 | 58 | 164 | 6.1 | 9.6 | 0.00 | 0.00 | 0.00 | 58 | 1014.9 |
| 20260507121518 | 58 | 161 | 3.5 | 7.8 | 0.00 | 0.00 | 0.00 | 58 | 1015.1 |
| 20260507120025 | 57 | 129 | 0.9 | 8.7 | 0.00 | 0.00 | 0.00 | 62 | 1015.3 |
| 20260507114520 | 55 | 214 | 1.7 | 7.8 | 0.00 | 0.00 | 0.00 | 66 | 1015.4 |
| 20260507113023 | 54 | 187 | 1.7 | 7.0 | 0.00 | 0.00 | 0.00 | 67 | 1015.5 |
| 20260507111517 | 54 | 193 | 2.6 | 6.1 | 0.00 | 0.00 | 0.00 | 70 | 1015.6 |
| 20260507110015 | 53 | 159 | 1.7 | 6.1 | 0.00 | 0.00 | 0.00 | 72 | 1015.7 |
| 20260507104527 | 52 | 136 | 1.7 | 5.2 | 0.00 | 0.00 | 0.00 | 75 | 1015.8 |
| 20260507103030 | 51 | 141 | 2.6 | 5.2 | 0.00 | 0.00 | 0.00 | 77 | 1015.9 |
| 20260507101507 | 50 | 107 | 1.7 | 5.2 | 0.00 | 0.00 | 0.00 | 78 | 1016.0 |
| 20260507100005 | 49 | 117 | 1.7 | 4.3 | 0.00 | 0.00 | 0.00 | 80 | 1016.0 |
| 20260507094519 | 49 | 193 | 1.7 | 4.3 | 0.00 | 0.00 | 0.00 | 80 | 1015.9 |
| 20260507093016 | 48 | 143 | 1.7 | 4.3 | 0.00 | 0.00 | 0.00 | 82 | 1015.9 |
| 20260507091514 | 48 | 190 | 1.7 | 3.5 | 0.00 | 0.00 | 0.00 | 84 | 1015.9 |